Regional Weather Roundup
Issued by NWS

Home | Current Version | Previous Version | Text Only | Print | Product List | Glossary Off
Versions: 1 2 3 4 5 6 7 8 9 10 11 12 13 14 15 16 17 18 19 20 21 22 23 24 25 26 27 28 29 30 31 32 33 34 35 36 37 38 39 40 41 42 43 44 45 46 47 48 49 50

108
ASUS43 KMPX 081710
RWRMN
WEATHER ROUNDUP FOR MINNESOTA
NATIONAL WEATHER SERVICE TWIN CITIES/CHANHASSEN MN
1100 AM CST THU DEC 08 2016


NOTE: "FAIR" INDICATES FEW OR NO CLOUDS BELOW 12,000 FEET WITH NO
SIGNIFICANT WEATHER AND/OR OBSTRUCTIONS TO VISIBILITY. N/A MEANS
CURRENT SKY AND/OR WEATHER CONDITIONS ARE NOT AVAILABLE.

MNZ060>063-068>070-081800-
   Twin Cities Metro

CITY           SKY/WX    TMP DP  RH WIND       PRES   REMARKS
TWIN CITIES    CLOUDY    23  13  65 NW20G29   30.36R WCI   8
ST PAUL        CLOUDY    23  15  71 NW18      30.37R WCI   9
CRYSTAL        CLOUDY    23  12  62 NW21      30.36R WCI   8
BLAINE         CLOUDY    25  16  68 NW17G24   30.34R WCI  11
LAKEVILLE      LGT SNOW  21  18  86 NW13G18   30.36R WCI   9
EDEN PRAIRIE   CLOUDY    24  13  62 NW17G24   30.35R WCI  11
SOUTH ST PAUL  CLOUDY    24  15  68 NW12G22   30.36R WCI  13
LAKE ELMO      CLOUDY    25  18  74 NW10G16   30.34S WCI  15
$$
MNZ001>005-007-008-013>017-022>024-027-028-081800-
   Northwest Minnesota

CITY           SKY/WX    TMP DP  RH WIND       PRES   REMARKS
BEMIDJI        FLURRIES  16  10  79 NW12      30.36R WCI   3
HALLOCK          N/A    N/A N/A N/A N12       30.51R
ROSEAU         CLOUDY    18  10  73 N13       30.43R WCI   4
WARROAD        CLOUDY    18  10  73 N13G21    30.42R WCI   4
THIEF RVR FALL FLURRIES  17  13  84 N18       30.45R WCI   1
CROOKSTON      CLOUDY    16  12  86 N21       30.49R FOG     WCI  -2
FOSSTON        LGT SNOW  12   9  85 NW10      30.42R WCI  -1
DETROIT LAKES  LGT SNOW  16  12  86 NW16G26   30.44R WCI   0
MOORHEAD       MIX PCPN  16  10  79 NW21G28   30.51R WCI  -2
PARK RAPIDS    MIX PCPN  17   7  64 NW12      30.37R WCI   4
$$
MNZ006-009>011-018-025>026-081800-
   North Central Minnesota

CITY           SKY/WX    TMP DP  RH WIND       PRES   REMARKS
BAUDETTE       CLOUDY    20  12  71 N14       30.36R WCI   7
FLAG ISLAND    CLOUDY    18  12  79 N21G29    30.39R WCI   1
INTL FALLS     MOSUNNY   20  13  74 NW14G21   30.30S WCI   7
WASKISH        FLURRIES  21  16  79 NW9       30.35R WCI  11
BIG FORK       FLURRIES  21  16  79 MISG      30.30R
LONGVILLE      LGT SNOW  18  14  86 W10G16    30.34R WCI   6
GRAND RAPIDS   LGT SNOW  19  16  86 NW16      30.32R WCI   5
CRANE LAKE     CLOUDY    19  16  86 NW8       30.28R WCI   9
ORR            LGT SNOW  19  14  79 NW10      30.25R WCI   8
COOK           LGT SNOW  19  16  86 NW9       30.26R WCI   9
$$
MNZ012-019>021-037-081800-
   Northeast Minnesota

CITY           SKY/WX    TMP DP  RH WIND       PRES   REMARKS
DULUTH         PTSUNNY   21  15  78 N14G25    30.22R WCI   8
ELY            FLURRIES  19  16  86 NW9G17    30.21R WCI   9
HIBBING        CLOUDY    18  14  84 NW16      30.27R WCI   3
EVELETH        PTSUNNY   20  15  80 NW10G22   30.26R WCI   9
DULUTH HARBOR  MOSUNNY   25  18  74 NW16G24   30.27S WCI  12
TWO HARBORS    MOSUNNY   27  18  69 NW12G17   30.21R WCI  16
SILVER BAY     SUNNY     25  18  74 N10G20    30.19R WCI  15
GRAND MARAIS     N/A     26  17  68 NW9       30.19R WCI  17
G MARAIS ARPRT CLOUDY    18  10  73 NW13G23   30.10S HAZE    WCI   4
$$
MNZ029>031-032-039>041-046>048-054>057-064-081800-
   West Central Minnesota

CITY           SKY/WX    TMP DP  RH WIND       PRES   REMARKS
FERGUS FALLS   LGT SNOW  12  10  92 NW20      30.52R WCI  -6
WHEATON        CLOUDY    16  10  79 W17G24    30.55R WCI   0
MORRIS         CLOUDY    16  10  79 NW21G28   30.48R HAZE    WCI  -2
ALEXANDRIA     LGT SNOW  16  10  77 NW18G28   30.42R WCI   0
ELBOW LAKE     LGT SNOW  14  10  87 NW21G28   30.48R WCI  -4
WADENA         FLURRIES  16   9  73 NW16G22   30.39R WCI   0
GLENWOOD       LGT SNOW  16  10  79 NW20      30.42R WCI  -1
APPLETON       CLOUDY    16   9  73 NW22G30   30.51R WCI  -2
BENSON         FLURRIES  16   9  73 N21       30.48R WCI  -2
ORTONVILLE     CLOUDY    14   7  73 NW21G26   30.52R WCI  -4
MADISON        CLOUDY    18  10  73 NW17G24   30.53R WCI   2
WILLMAR        LGT SNOW  18  12  79 NW21G26   30.46R WCI   1
$$
MNZ033>034-036-042>043-049>051-058-059-081800-
   Central Minnesota

CITY           SKY/WX    TMP DP  RH WIND       PRES   REMARKS
ST CLOUD       CLOUDY    21  13  71 NW17      30.38R WCI   7
PAYNESVILLE    PTSUNNY   19  12  74 NW15G28   30.41S WCI   5
AITKIN         MIX PCPN  23  12  63 NW9G18    30.31R WCI  13
PINE RIVER     CLOUDY    18  12  79 NW12      30.38R WCI   5
BRAINERD       CLOUDY    19  11  70 NW16      30.35R WCI   4
STAPLES        FLURRIES  16  10  79 NW14      30.38R WCI   1
LONG PRAIRIE   CLOUDY    19  12  73 W17       30.39R WCI   4
LITTLE FALLS   FLURRIES  19  12  73 NW12G22   30.38R WCI   7
LITCHFIELD     CLOUDY    19  14  79 NW14G24   30.41R WCI   6
BUFFALO        CLOUDY    22  13  68 NW16G22   30.39R WCI   8
MAPLE LAKE     FLURRIES  23  16  75 NW13G25   30.39R WCI  11
HUTCHINSON     CLOUDY    21  15  77 W21G26    30.42R WCI   6
$$
MNZ037-044-045-052-053-081800-
   East Central Minnesota

CITY           SKY/WX    TMP DP  RH WIND       PRES   REMARKS
PRINCETON      CLOUDY    23  16  74 NW16      30.35R WCI  10
MORA           FLURRIES  25  18  74 NW16      30.34R WCI  12
CAMBRIDGE      FLURRIES  25  16  68 NW14      30.32R WCI  13
RUSH CITY      PTSUNNY   25  14  63 N12G17    30.33R WCI  14
MOOSE LAKE     PTSUNNY   23  14  68 NW12G22   30.28R WCI  12
HINCKLEY       CLOUDY    25  18  74 NW10G18   30.31R WCI  15
CLOQUET        CLOUDY    21  14  73 NW16G22   30.25R WCI   7
MCGREGOR       CLOUDY    23  16  74 NW10G20   30.31R WCI  12
$$
MNZ071>073-080-081-089-090-097-098-081800-
   Southwest Minnesota

CITY           SKY/WX    TMP DP  RH WIND       PRES   REMARKS
MONTEVIDEO     CLOUDY    16   9  73 N16G25    30.51S WCI   0
GRANITE FALLS  LGT SNOW  17  11  79 W23G29    30.52R WCI  -1
CANBY          CLOUDY    17   9  71 W21G26    30.54R WCI   0
MARSHALL       CLOUDY    15   8  73 NW28      30.49R WCI  -5
REDWOOD FALLS  FLURRIES  16   8  71 NW20G28   30.48R WCI  -1
OLIVIA         LGT SNOW  18  12  79 NW17G28   30.46R WCI   2
PIPESTONE      MOSUNNY   12   7  79 NW17G23   30.49S WCI  -5
WINDOM         FLURRIES  18  10  73 NW21G29   30.46R WCI   1
WORTHINGTON    FLURRIES  14   8  77 NW24      30.48R WCI  -5
JACKSON        CLOUDY    18  10  73 NW23G29   30.45S WCI   0
TRACY          CLOUDY    17  11  78 NW21G28   30.50R WCI   0
SLAYTON        MOSUNNY   14   8  77 NW22G29   30.48R WCI  -5
$$
MNZ065>067-074>077-082>085-091>093-081800-
   South Central Minnesota

CITY           SKY/WX    TMP DP  RH WIND       PRES   REMARKS
MANKATO        FLURRIES  18  12  77 W24G31    30.42R WCI   0
NEW ULM        CLOUDY    16   9  73 NW20G25   30.45R WCI  -1
ST JAMES       FLURRIES  16  10  79 W25G31    30.47R WCI  -3
FAIRMONT       FLURRIES  17  10  74 NW25G35   30.45R WCI  -1
GLENCOE        LGT SNOW  22  18  84 W17       30.40R WCI   7
FARIBAULT      FLURRIES  19  16  86 W14G23    30.37R WCI   6
OWATONNA       FLURRIES  19  14  79 W18G24    30.37R WCI   4
WASECA         LGT SNOW  19  14  79 W20G26    30.41R WCI   4
ALBERT LEA     LGT SNOW  21  18  86 NW17G23   30.38R WCI   7
$$
MNZ078>079-086>088-094>096-081800-
   Southeast Minnesota

CITY           SKY/WX    TMP DP  RH WIND       PRES   REMARKS
ROCHESTER      CLOUDY    19  15  84 NW22G28   30.32R FOG     WCI   2
RED WING       CLOUDY    25  14  63 NW10G20   30.33R WCI  15
STANTON        LGT SNOW  23  18  80 W15       30.35S WCI  10
DODGE CENTER   FLURRIES  19  16  86 NW16G23   30.33R WCI   5
WINONA         CLOUDY    23  18  80 NW10      30.33S WCI  12
AUSTIN         FLURRIES  19  14  79 NW20G25   30.35S WCI   4
PRESTON        CLOUDY    19  13  80 NW21      30.32S HAZE    WCI   2
$$
ABBREVIATIONS USED IN REMARKS
   TC - TEMPERATURES IN CELSIUS
  WCI - WIND CHILL INDEX
   HX - HEAT INDEX
  VSB - VISIBILITY
$$




USA.gov is the U.S. government's official web portal to all federal, state and local government web resources and services.